| time (UTC) | temp F | wind direction | speed MPH | gust MPH | rain 1hr in | rain 24hr in | rain mn in | humidity % | barometer mb |
| 20260505070031 | 64 | 266 | 9.0 | 20.0 | 0.00 | 0.11 | 0.11 | 84 | 1020.0 |
| 20260505065509 | 64 | 270 | 12.0 | 15.0 | 0.00 | 0.11 | 0.11 | 89 | 1019.6 |
| 20260505065014 | 64 | 205 | 7.0 | 14.0 | 0.00 | 0.11 | 0.11 | 90 | 1019.6 |
| 20260505064512 | 64 | 256 | 8.0 | 15.0 | 0.00 | 0.11 | 0.11 | 87 | 1019.6 |
| 20260505064013 | 64 | 269 | 5.0 | 5.0 | 0.00 | 0.11 | 0.11 | 89 | 1019.6 |
| 20260505063509 | 64 | 315 | 16.0 | 16.0 | 0.00 | 0.11 | 0.11 | 87 | 1019.6 |
| 20260505063021 | 64 | 333 | 5.0 | 5.0 | 0.00 | 0.11 | 0.11 | 92 | 1019.6 |
| 20260505062509 | 64 | 301 | 6.0 | 8.0 | 0.00 | 0.11 | 0.11 | 93 | 1019.6 |
| 20260505062013 | 64 | 270 | 13.0 | 16.0 | 0.00 | 0.11 | 0.11 | 90 | 1019.6 |
| 20260505061513 | 64 | 349 | 6.0 | 9.0 | 0.00 | 0.11 | 0.11 | 93 | 1019.6 |
| 20260505061012 | 64 | 253 | 12.0 | 12.0 | 0.00 | 0.11 | 0.11 | 93 | 1020.0 |
| 20260505060509 | 64 | 274 | 4.0 | 15.0 | 0.00 | 0.11 | 0.11 | 94 | 1020.0 |
| 20260505060032 | 64 | 342 | 9.0 | 9.0 | 0.00 | 0.11 | 0.11 | 94 | 1020.0 |
| 20260505055508 | 64 | 283 | 6.0 | 7.0 | 0.00 | 0.11 | 0.11 | 93 | 1020.0 |
| 20260505055011 | 64 | 118 | 7.0 | 7.0 | 0.00 | 0.11 | 0.11 | 91 | 1020.0 |
| 20260505054512 | 63 | 290 | 5.0 | 9.0 | 0.00 | 0.11 | 0.11 | 94 | 1020.0 |
| 20260505054012 | 63 | 176 | 7.0 | 9.0 | 0.00 | 0.11 | 0.11 | 94 | 1020.0 |
| 20260505053509 | 63 | 247 | 1.0 | 1.0 | 0.00 | 0.11 | 0.11 | 95 | 1020.0 |
| 20260505053022 | 63 | 195 | 2.0 | 5.0 | 0.00 | 0.11 | 0.11 | 95 | 1020.0 |
| 20260505052509 | 63 | 314 | 6.0 | 6.0 | 0.00 | 0.11 | 0.11 | 94 | 1020.0 |
| 20260505052012 | 63 | 181 | 2.0 | 4.0 | 0.00 | 0.11 | 0.11 | 94 | 1020.0 |
| 20260505051512 | 63 | 305 | 8.0 | 8.0 | 0.00 | 0.11 | 0.11 | 95 | 1020.0 |
| 20260505051012 | 63 | 154 | 3.0 | 7.0 | 0.00 | 0.11 | 0.11 | 95 | 1020.0 |
| 20260505050509 | 63 | 304 | 12.0 | 17.0 | 0.00 | 0.11 | 0.11 | 94 | 1020.0 |
| 20260505041512 | 63 | 257 | 3.0 | 3.0 | 0.01 | 0.11 | 0.11 | 98 | 1019.6 |
| 20260505041012 | 63 | 307 | 4.0 | 4.0 | 0.01 | 0.11 | 0.11 | 99 | 1019.6 |
| 20260505040509 | 63 | 169 | 4.0 | 8.0 | 0.00 | 0.11 | 0.11 | 98 | 1019.6 |
| 20260505040032 | 63 | 305 | 7.0 | 16.0 | 0.00 | 0.11 | 0.11 | 97 | 1019.6 |
| 20260505035508 | 63 | 289 | 5.0 | 12.0 | 0.01 | 0.11 | 0.11 | 99 | 1019.3 |
| 20260505035011 | 63 | 263 | 5.0 | 7.0 | 0.01 | 0.11 | 0.11 | 99 | 1019.3 |
| 20260505034512 | 63 | 297 | 4.0 | 7.0 | 0.00 | 0.10 | 0.10 | 99 | 1019.6 |
| 20260505034013 | 63 | 119 | 4.0 | 4.0 | 0.01 | 0.10 | 0.10 | 99 | 1019.6 |
| 20260505033508 | 63 | 139 | 7.0 | 7.0 | 0.01 | 0.10 | 0.10 | 99 | 1020.0 |
| 20260505033022 | 61 | 111 | 3.0 | 6.0 | 0.00 | 0.10 | 0.10 | 99 | 1020.0 |
| 20260505032509 | 61 | 278 | 6.0 | 13.0 | 0.01 | 0.10 | 0.10 | 99 | 1020.0 |
| 20260505032012 | 61 | 211 | 4.0 | 6.0 | 0.01 | 0.10 | 0.10 | 99 | 1020.0 |
| 20260505031512 | 61 | 198 | 5.0 | 5.0 | 0.01 | 0.10 | 0.10 | 99 | 1020.0 |
| 20260505031013 | 61 | 281 | 4.0 | 9.0 | 0.01 | 0.10 | 0.10 | 99 | 1020.0 |
| 20260505030509 | 61 | 180 | 6.0 | 11.0 | 0.01 | 0.10 | 0.10 | 99 | 1020.0 |
| 20260505030031 | 61 | 246 | 1.0 | 4.0 | 0.00 | 0.10 | 0.10 | 99 | 1020.0 |
| 20260505025508 | 61 | 145 | 2.0 | 2.0 | 0.01 | 0.10 | 0.10 | 99 | 1020.0 |
| 20260505025012 | 61 | 236 | 1.0 | 4.0 | 0.01 | 0.10 | 0.10 | 99 | 1020.0 |
| 20260505024512 | 61 | 102 | 2.0 | 2.0 | 0.00 | 0.10 | 0.10 | 99 | 1020.0 |
| 20260505024012 | 61 | 229 | 2.0 | 3.0 | 0.00 | 0.10 | 0.10 | 99 | 1020.0 |
| 20260505023508 | 61 | 331 | 5.0 | 6.0 | 0.00 | 0.10 | 0.10 | 99 | 1020.0 |
| 20260505023021 | 61 | 134 | 3.0 | 3.0 | 0.00 | 0.10 | 0.10 | 99 | 1020.0 |
| 20260505022509 | 61 | 233 | 2.0 | 6.0 | 0.01 | 0.10 | 0.10 | 99 | 1020.0 |
| 20260505022012 | 61 | 28 | 8.0 | 10.0 | 0.01 | 0.10 | 0.10 | 99 | 1020.3 |
| 20260505021512 | 61 | 334 | 4.0 | 9.0 | 0.00 | 0.09 | 0.09 | 99 | 1020.3 |
| 20260505021012 | 61 | 310 | 2.0 | 2.0 | 0.00 | 0.09 | 0.09 | 99 | 1020.7 |
| 20260505020509 | 61 | 171 | 2.0 | 2.0 | 0.00 | 0.09 | 0.09 | 99 | 1020.7 |
| 20260505020030 | 61 | 175 | 4.0 | 6.0 | 0.01 | 0.09 | 0.09 | 99 | 1020.7 |
| 20260505015509 | 61 | 257 | 3.0 | 3.0 | 0.01 | 0.09 | 0.09 | 99 | 1020.7 |
| 20260505015012 | 61 | 171 | 1.0 | 2.0 | 0.00 | 0.09 | 0.09 | 99 | 1020.7 |
| 20260505014512 | 61 | 102 | 3.0 | 3.0 | 0.01 | 0.09 | 0.09 | 99 | 1020.7 |
| 20260505014011 | 61 | 287 | 3.0 | 9.0 | 0.03 | 0.09 | 0.09 | 99 | 1020.7 |
| 20260505013509 | 61 | 227 | 1.0 | 2.0 | 0.03 | 0.09 | 0.09 | 99 | 1020.7 |
| 20260505013022 | 61 | 274 | 7.0 | 7.0 | 0.05 | 0.09 | 0.09 | 99 | 1020.7 |
| 20260505012508 | 61 | 270 | 3.0 | 7.0 | 0.03 | 0.09 | 0.09 | 99 | 1020.7 |
| 20260505012012 | 61 | 274 | 2.0 | 2.0 | 0.00 | 0.08 | 0.08 | 99 | 1021.0 |
| 20260505011512 | 61 | 40 | 2.0 | 3.0 | 0.00 | 0.08 | 0.08 | 99 | 1021.0 |
| 20260505011012 | 61 | 181 | 2.0 | 3.0 | 0.01 | 0.08 | 0.08 | 99 | 1021.0 |
| 20260505010509 | 61 | 170 | 1.0 | 4.0 | 0.03 | 0.08 | 0.08 | 99 | 1021.0 |
| 20260505010030 | 61 | 129 | 4.0 | 9.0 | 0.01 | 0.08 | 0.08 | 99 | 1021.0 |
| 20260505005509 | 61 | 214 | 2.0 | 5.0 | 0.03 | 0.08 | 0.08 | 99 | 1021.0 |
| 20260505005012 | 61 | 215 | 2.0 | 8.0 | 0.03 | 0.08 | 0.08 | 99 | 1021.0 |
| 20260505004512 | 61 | 62 | 6.0 | 9.0 | 0.00 | 0.07 | 0.07 | 99 | 1021.0 |
| 20260505004012 | 61 | 293 | 6.0 | 9.0 | 0.00 | 0.07 | 0.07 | 99 | 1021.0 |
| 20260505003509 | 61 | 158 | 2.0 | 4.0 | 0.00 | 0.07 | 0.07 | 99 | 1021.7 |
| 20260505003022 | 61 | 202 | 1.0 | 3.0 | 0.01 | 0.07 | 0.07 | 99 | 1021.7 |
| 20260505002509 | 61 | 270 | 9.0 | 9.0 | 0.01 | 0.07 | 0.07 | 99 | 1021.7 |
| 20260505002012 | 61 | 266 | 9.0 | 10.0 | 0.01 | 0.07 | 0.07 | 99 | 1021.7 |
| 20260505001512 | 61 | 309 | 2.0 | 2.0 | 0.03 | 0.07 | 0.07 | 99 | 1021.7 |
| 20260505001012 | 61 | 241 | 4.0 | 9.0 | 0.04 | 0.07 | 0.07 | 99 | 1021.7 |
| 20260505000509 | 61 | 288 | 3.0 | 5.0 | 0.03 | 0.06 | 0.06 | 99 | 1021.7 |
| 20260505000035 | 61 | 193 | 3.0 | 14.0 | 0.03 | 0.06 | 0.06 | 99 | 1022.0 |
| 20260504235510 | 61 | 32 | 2.0 | 2.0 | 0.05 | 0.06 | 0.06 | 99 | 1022.0 |
| 20260504235012 | 61 | 167 | 2.0 | 5.0 | 0.06 | 0.06 | 0.06 | 99 | 1022.0 |
| 20260504234512 | 61 | 149 | 8.0 | 11.0 | 0.05 | 0.05 | 0.05 | 99 | 1022.0 |
| 20260504234013 | 61 | 96 | 2.0 | 10.0 | 0.04 | 0.05 | 0.05 | 99 | 1022.0 |
| 20260504233508 | 61 | 122 | 2.0 | 2.0 | 0.03 | 0.04 | 0.04 | 99 | 1022.7 |
| 20260504233023 | 61 | 136 | 2.0 | 3.0 | 0.03 | 0.04 | 0.04 | 99 | 1022.7 |
| 20260504232510 | 61 | 271 | 4.0 | 9.0 | 0.04 | 0.04 | 0.04 | 99 | 1022.7 |
| 20260504232013 | 61 | 66 | 7.0 | 10.0 | 0.04 | 0.03 | 0.03 | 99 | 1022.7 |
| 20260504231511 | 61 | 207 | 3.0 | 7.0 | 0.03 | 0.03 | 0.03 | 99 | 1022.7 |
| 20260504231012 | 61 | 287 | 3.0 | 3.0 | 0.01 | 0.03 | 0.03 | 99 | 1022.7 |
| 20260504230508 | 61 | 224 | 2.0 | 4.0 | 0.01 | 0.03 | 0.03 | 99 | 1022.7 |
| 20260504230033 | 61 | 278 | 3.0 | 5.0 | 0.03 | 0.03 | 0.03 | 98 | 1022.7 |
| 20260504225509 | 61 | 99 | 2.0 | 5.0 | 0.03 | 0.02 | 0.02 | 99 | 1022.7 |
| 20260504225012 | 61 | 90 | 2.0 | 4.0 | 0.03 | 0.02 | 0.02 | 99 | 1022.7 |
| 20260504224512 | 61 | 155 | 2.0 | 3.0 | 0.03 | 0.02 | 0.02 | 99 | 1022.7 |
| 20260504224012 | 61 | 156 | 2.0 | 4.0 | 0.03 | 0.02 | 0.02 | 98 | 1022.7 |
| 20260504223509 | 61 | 269 | 5.0 | 6.0 | 0.03 | 0.01 | 0.01 | 98 | 1023.0 |
| 20260504223023 | 61 | 106 | 2.0 | 4.0 | 0.04 | 0.01 | 0.01 | 98 | 1023.0 |
| 20260504222509 | 61 | 339 | 3.0 | 7.0 | 0.03 | 0.01 | 0.01 | 98 | 1023.0 |
| 20260504222013 | 61 | 344 | 2.0 | 4.0 | 0.03 | 0.01 | 0.01 | 98 | 1023.0 |
| 20260504221512 | 61 | 200 | 6.0 | 7.0 | 0.03 | 0.00 | 0.00 | 98 | 1023.0 |
| 20260504221012 | 61 | 190 | 2.0 | 3.0 | 0.04 | 0.00 | 0.00 | 98 | 1023.0 |
| 20260504220508 | 61 | 221 | 4.0 | 6.0 | 0.05 | 0.00 | 0.00 | 97 | 1023.0 |
| 20260504220032 | 61 | 198 | 3.0 | 6.0 | 0.05 | 0.00 | 0.00 | 97 | 1023.0 |
| 20260504215509 | 61 | 207 | 2.0 | 6.0 | 0.04 | 0.01 | 0.01 | 97 | 1023.0 |
| 20260504215012 | 61 | 210 | 4.0 | 6.0 | 0.03 | 0.01 | 0.01 | 96 | 1023.0 |
| 20260504214512 | 61 | 292 | 2.0 | 2.0 | 0.03 | 0.01 | 0.01 | 96 | 1023.4 |
| 20260504214012 | 61 | 315 | 4.0 | 4.0 | 0.01 | 0.00 | 0.00 | 97 | 1023.4 |
| 20260504213509 | 61 | 279 | 2.0 | 5.0 | 0.00 | 0.00 | 0.00 | 94 | 1023.4 |
| 20260504213022 | 61 | 171 | 1.0 | 2.0 | 0.00 | 0.00 | 0.00 | 93 | 1023.4 |
| 20260504212509 | 61 | 275 | 2.0 | 3.0 | 0.00 | 0.00 | 0.00 | 93 | 1023.4 |
| 20260504212013 | 61 | 162 | 4.0 | 6.0 | 0.01 | 0.00 | 0.00 | 93 | 1023.7 |
| 20260504211513 | 63 | 200 | 3.0 | 4.0 | 0.01 | 0.00 | 0.00 | 93 | 1023.7 |
| 20260504211012 | 63 | 337 | 3.0 | 4.0 | 0.00 | 0.00 | 0.00 | 93 | 1024.4 |
| 20260504210509 | 63 | 234 | 5.0 | 5.0 | 0.00 | 0.00 | 0.00 | 90 | 1024.4 |
| 20260504210030 | 63 | 302 | 4.0 | 8.0 | 0.00 | 0.00 | 0.00 | 90 | 1024.4 |
| 20260504205509 | 63 | 316 | 4.0 | 7.0 | 0.00 | 0.00 | 0.00 | 89 | 1023.7 |
| 20260504205012 | 63 | 284 | 8.0 | 12.0 | 0.00 | 0.00 | 0.00 | 89 | 1023.7 |
| 20260504204512 | 63 | 168 | 2.0 | 3.0 | 0.00 | 0.00 | 0.00 | 89 | 1023.7 |
| 20260504204012 | 63 | 259 | 5.0 | 6.0 | 0.00 | 0.00 | 0.00 | 89 | 1023.7 |
| 20260504203509 | 63 | 168 | 2.0 | 4.0 | 0.00 | 0.00 | 0.00 | 89 | 1023.7 |
| 20260504203021 | 63 | 109 | 4.0 | 8.0 | 0.00 | 0.00 | 0.00 | 89 | 1023.7 |
| 20260504202509 | 63 | 256 | 2.0 | 3.0 | 0.00 | 0.00 | 0.00 | 88 | 1023.7 |
| 20260504202012 | 63 | 287 | 4.0 | 6.0 | 0.00 | 0.00 | 0.00 | 88 | 1023.4 |
| 20260504201512 | 63 | 117 | 4.0 | 6.0 | 0.00 | 0.00 | 0.00 | 88 | 1023.4 |
| 20260504201013 | 63 | 98 | 6.0 | 8.0 | 0.00 | 0.00 | 0.00 | 88 | 1023.4 |
| 20260504200509 | 63 | 31 | 4.0 | 4.0 | 0.00 | 0.00 | 0.00 | 88 | 1023.4 |
| 20260504200030 | 63 | 287 | 2.0 | 4.0 | 0.00 | 0.00 | 0.00 | 89 | 1023.4 |
| 20260504195508 | 63 | 174 | 2.0 | 3.0 | 0.01 | 0.00 | 0.00 | 89 | 1023.7 |
| 20260504195012 | 63 | 177 | 2.0 | 3.0 | 0.01 | 0.00 | 0.00 | 90 | 1023.7 |
| 20260504194512 | 63 | 276 | 9.0 | 17.0 | 0.01 | 0.00 | 0.00 | 89 | 1023.7 |
| 20260504194012 | 63 | 269 | 4.0 | 4.0 | 0.00 | 0.00 | 0.00 | 89 | 1023.7 |
| 20260504193510 | 63 | 161 | 4.0 | 5.0 | 0.00 | 0.00 | 0.00 | 87 | 1023.4 |
| 20260504193024 | 63 | 258 | 4.0 | 6.0 | 0.00 | 0.00 | 0.00 | 84 | 1023.4 |
| 20260504192509 | 63 | 211 | 2.0 | 3.0 | 0.00 | 0.00 | 0.00 | 82 | 1023.4 |
| 20260504192013 | 63 | 226 | 2.0 | 4.0 | 0.00 | 0.00 | 0.00 | 81 | 1023.7 |
| 20260504191512 | 63 | 268 | 4.0 | 10.0 | 0.00 | 0.00 | 0.00 | 82 | 1023.7 |
| 20260504191013 | 63 | 206 | 1.0 | 2.0 | 0.00 | 0.00 | 0.00 | 85 | 1023.7 |
| 20260504190031 | 63 | 354 | 6.0 | 8.0 | 0.00 | 0.00 | 0.00 | 84 | 1023.7 |
| 20260504185509 | 63 | 114 | 1.0 | 2.0 | 0.00 | 0.00 | 0.00 | 85 | 1023.4 |
| 20260504185012 | 63 | 260 | 3.0 | 4.0 | 0.00 | 0.00 | 0.00 | 84 | 1023.4 |
| 20260504184013 | 63 | 194 | 2.0 | 2.0 | 0.00 | 0.00 | 0.00 | 84 | 1023.4 |
| 20260504183508 | 63 | 176 | 2.0 | 3.0 | 0.00 | 0.00 | 0.00 | 85 | 1023.7 |
| 20260504183022 | 63 | 67 | 3.0 | 4.0 | 0.00 | 0.00 | 0.00 | 85 | 1023.7 |
| 20260504182509 | 63 | 180 | 5.0 | 14.0 | 0.00 | 0.00 | 0.00 | 84 | 1023.7 |
| 20260504182013 | 63 | 161 | 2.0 | 3.0 | 0.00 | 0.00 | 0.00 | 85 | 1023.7 |
| 20260504181512 | 63 | 151 | 2.0 | 3.0 | 0.00 | 0.00 | 0.00 | 85 | 1023.7 |
| 20260504181014 | 63 | 274 | 12.0 | 24.0 | 0.00 | 0.00 | 0.00 | 84 | 1023.7 |
| 20260504180031 | 63 | 195 | 5.0 | 9.0 | 0.00 | 0.00 | 0.00 | 82 | 1023.4 |
| 20260504175509 | 63 | 269 | 4.0 | 7.0 | 0.00 | 0.00 | 0.00 | 83 | 1023.4 |
| 20260504175012 | 63 | 90 | 1.0 | 1.0 | 0.00 | 0.00 | 0.00 | 84 | 1023.4 |
| 20260504174512 | 63 | 149 | 3.0 | 5.0 | 0.00 | 0.00 | 0.00 | 85 | 1023.7 |
| 20260504174012 | 63 | 180 | 4.0 | 4.0 | 0.00 | 0.00 | 0.00 | 85 | 1023.7 |
| 20260504173509 | 63 | 233 | 1.0 | 4.0 | 0.00 | 0.00 | 0.00 | 85 | 1023.7 |
| 20260504173021 | 63 | 281 | 4.0 | 4.0 | 0.00 | 0.00 | 0.00 | 85 | 1023.7 |
| 20260504172510 | 63 | 171 | 4.0 | 7.0 | 0.00 | 0.00 | 0.00 | 85 | 1023.7 |
| 20260504172014 | 63 | 115 | 2.0 | 3.0 | 0.00 | 0.00 | 0.00 | 85 | 1023.7 |
| 20260504171512 | 63 | 232 | 1.0 | 1.0 | 0.00 | 0.00 | 0.00 | 85 | 1023.7 |
| 20260504171013 | 63 | 191 | 2.0 | 3.0 | 0.00 | 0.00 | 0.00 | 84 | 1023.7 |
| 20260504170509 | 64 | 276 | 6.0 | 6.0 | 0.00 | 0.00 | 0.00 | 83 | 1023.7 |
| 20260504151014 | 66 | 233 | 4.0 | 6.0 | 0.00 | 0.00 | 0.00 | 73 | 1024.4 |
| 20260504150509 | 66 | 166 | 1.0 | 1.0 | 0.00 | 0.00 | 0.00 | 73 | 1024.4 |
| 20260504141013 | 66 | 165 | 1.0 | 2.0 | 0.00 | 0.00 | 0.00 | 72 | 1025.1 |
| 20260504140509 | 66 | 116 | 4.0 | 6.0 | 0.00 | 0.00 | 0.00 | 71 | 1025.1 |
| 20260504130509 | 64 | 173 | 2.0 | 3.0 | 0.00 | 0.00 | 0.00 | 76 | 1025.4 |
| 20260504110509 | 66 | 156 | 7.0 | 11.0 | 0.00 | 0.00 | 0.00 | 65 | 1025.7 |
| 20260504100508 | 66 | 307 | 6.0 | 9.0 | 0.00 | 0.00 | 0.00 | 66 | 1025.7 |
| 20260504081514 | 64 | 101 | 1.0 | 3.0 | 0.00 | 0.00 | 0.00 | 70 | 1025.7 |
| 20260504081013 | 64 | 164 | 3.0 | 5.0 | 0.00 | 0.00 | 0.00 | 70 | 1025.7 |
| 20260504080509 | 64 | 81 | 5.0 | 9.0 | 0.00 | 0.00 | 0.00 | 70 | 1025.7 |